{"data":{"norad_id":57101,"epoch":"2026-05-25T04:54:57.544416Z","epoch_age_seconds":50672,"freshness":"FRESH","line1":"1 57101U 23090A   26145.20483269  .00000049  00000+0  11305-4 0  9996","line2":"2 57101  43.0018 209.5025 0001198 270.4484  89.6230 15.27576916162032","mean_motion":15.27576916,"eccentricity":0.0001198,"inclination_deg":43.0018,"raan_deg":209.5025,"arg_perigee_deg":270.4484,"mean_anomaly_deg":89.623,"bstar":1.1305e-5,"rev_number":16203,"period_min":94.266939027246,"perigee_km":482.23635946004,"apogee_km":483.88030186127,"semimajor_km":6861.1953306607,"source":"CELESTRAK","updated_at":"2026-05-25T13:38:18.218908Z"}}